Hettinger, ND

1:17 AM MST on December 09, 2016 (GMT -0700)
Hettinger Municipal

Weather History for KHEI - August, 2013

Change the Weather History Date:

Wednesday, August 28, 2013

  Actual Average Record
Temperature  
Mean Temperature 75 °F -  
Max Temperature 89 °F 81 °F 96 °F (2012)
Min Temperature 61 °F 49 °F 39 °F (2004)
Cooling Degree Days 10 3  
Month to date cooling degree days 124 141  
Year to date cooling degree days 222 341  
Since 1 June cooling degree days 215 336  
Growing Degree Days 26 (Base 50)    
Moisture  
Dew Point 64 °F    
Average Humidity 80    
Maximum Humidity 100    
Minimum Humidity 44    
Precipitation  
Precipitation 0.01 in 0.05 in 0.28 in (1999)
Month to date precipitation 1.85 1.50  
Year to date precipitation 16.55 12.08  
Sea Level Pressure  
Sea Level Pressure 29.96 in    
Wind  
Wind Speed 8 mph (East)    
Max Wind Speed 17 mph    
Max Gust Speed 24 mph    
Visibility 6 miles    
Events Fog , Rain    
T = Trace of Precipitation, MM = Missing Value Source: NWS Daily Summary

Daily Weather History Graph

Daily Weather History Graph

Search for Another Location

Airport or City:

Trip Planner

Search our weather history database for the weather conditions in past years. The results will help you decide how hot, cold, wet, or windy it might be!

Date:

Astronomy

Aug. 28, 2013 Rise Set
Actual Time 6:06 AM MDT 7:35 PM MDT
Civil Twilight 5:35 AM MDT 8:06 PM MDT
Nautical Twilight 4:57 AM MDT 8:44 PM MDT
Astronomical Twilight 4:16 AM MDT 9:25 PM MDT
Moon 11:51 PM MDT (8/28) 2:24 PM MDT (8/28)
Length of Visible Light 14h 31m
Length of Day
13h 29m
Waning Gibbous, 47% of the Moon is Illuminated
Aug 28
Waning Gibbous
Sep 5
New
Sep 12
First Quarter
Sep 19
Full
Sep 26
Last Quarter

Hourly Weather History & Observations

Time (MDT) Temp. Heat Index Dew Point Humidity Pressure Visibility Wind Dir Wind Speed Gust Speed Precip Events Conditions
12:08 AM 66.2 °F - 64.4 °F 94% 30.01 in 7.0 mi East 3.5 mph - N/A   Scattered Clouds
12:17 AM 66.2 °F - 64.4 °F 94% 30.01 in 7.0 mi ESE 4.6 mph - N/A   Partly Cloudy
12:53 AM 68.0 °F - 66.0 °F 93% 29.93 in 7.0 mi East 4.6 mph - N/A   Partly Cloudy
1:34 AM 66.2 °F - 64.4 °F 94% 30.00 in 6.0 mi ENE 3.5 mph - N/A   Partly Cloudy
1:53 AM 66.0 °F - 64.0 °F 93% 29.98 in 6.0 mi ESE 6.9 mph - N/A   Partly Cloudy
2:53 AM 64.0 °F - 63.0 °F 96% 29.97 in 3.0 mi ENE 6.9 mph - N/A   Partly Cloudy
2:56 AM 64.4 °F - 62.6 °F 94% 30.00 in 1.8 mi NE 5.8 mph - N/A   Scattered Clouds
3:07 AM 64.4 °F - 62.6 °F 94% 30.00 in 1.5 mi NE 4.6 mph - N/A   Mostly Cloudy
3:21 AM 64.4 °F - 62.6 °F 94% 29.99 in 3.0 mi NNE 4.6 mph - N/A   Mostly Cloudy
3:31 AM 64.4 °F - 62.6 °F 94% 29.99 in 6.0 mi North 3.5 mph - N/A   Scattered Clouds
3:53 AM 63.0 °F - 61.0 °F 93% 29.95 in 6.0 mi NNE 3.5 mph - N/A   Clear
4:53 AM 63.0 °F - 61.0 °F 93% 29.96 in 8.0 mi ENE 3.5 mph - N/A   Partly Cloudy
5:02 AM 64.4 °F - 62.6 °F 94% 30.00 in 2.0 mi East 3.5 mph - N/A   Mostly Cloudy
5:09 AM 64.4 °F - 62.6 °F 94% 30.01 in 1.0 mi Calm Calm - N/A   Mist
5:16 AM 64.4 °F - 62.6 °F 94% 30.01 in 0.8 mi Calm Calm - N/A   Mist
5:42 AM 64.4 °F - 62.6 °F 94% 30.00 in 0.2 mi Calm Calm - N/A Fog Fog
5:53 AM 64.0 °F - 63.0 °F 96% 29.96 in 0.2 mi Calm Calm - N/A Fog Fog
6:07 AM 62.6 °F - 62.6 °F 100% 30.02 in 0.5 mi Calm Calm - N/A Fog Fog
6:48 AM 62.6 °F - 62.6 °F 100% 30.02 in 1.5 mi NNW 3.5 mph - N/A   Mostly Cloudy
6:53 AM 63.0 °F - 62.1 °F 97% 29.99 in 3.0 mi ENE 3.5 mph - N/A   Mostly Cloudy
7:01 AM 64.4 °F - 62.6 °F 94% 30.03 in 5.0 mi ENE 6.9 mph - N/A   Scattered Clouds
7:53 AM 66.9 °F - 64.9 °F 93% 29.99 in 9.0 mi ENE 4.6 mph - 0.00 in Rain Light Rain
8:53 AM 70.0 °F - 64.9 °F 84% 30.00 in 10.0 mi Calm Calm - 0.00 in   Clear
9:53 AM 75.0 °F - 66.0 °F 73% 30.00 in 10.0 mi East 5.8 mph - 0.01 in   Partly Cloudy
10:53 AM 78.1 °F - 66.9 °F 68% 29.99 in 10.0 mi SE 6.9 mph - N/A   Clear
11:53 AM 82.0 °F 84.9 °F 68.0 °F 62% 29.98 in 10.0 mi ENE 5.8 mph - N/A   Clear
12:53 PM 84.0 °F 86.5 °F 66.9 °F 56% 29.96 in 10.0 mi East 6.9 mph - N/A   Clear
1:53 PM 86.0 °F 88.2 °F 66.0 °F 51% 29.94 in 10.0 mi ESE 10.4 mph 16.1 mph N/A   Clear
2:53 PM 88.0 °F 90.3 °F 66.0 °F 48% 29.93 in 10.0 mi SE 12.7 mph 20.7 mph N/A   Scattered Clouds
3:53 PM 89.1 °F 90.3 °F 64.0 °F 43% 29.91 in 10.0 mi SE 16.1 mph 24.2 mph N/A   Clear
4:53 PM 89.1 °F 90.3 °F 64.0 °F 43% 29.89 in 10.0 mi SE 11.5 mph 18.4 mph N/A   Clear
5:53 PM 88.0 °F 89.3 °F 64.0 °F 45% 29.88 in 10.0 mi ESE 10.4 mph - N/A   Clear
6:53 PM 84.0 °F 85.8 °F 64.9 °F 53% 29.88 in 10.0 mi ESE 9.2 mph - N/A   Clear
7:53 PM 80.1 °F 81.9 °F 64.9 °F 60% 29.88 in 10.0 mi ESE 9.2 mph - N/A   Clear
8:53 PM 77.0 °F - 64.9 °F 66% 29.88 in 10.0 mi ESE 9.2 mph - N/A   Clear
9:53 PM 75.9 °F - 64.0 °F 67% 29.89 in 10.0 mi SE 8.1 mph - N/A   Clear
10:53 PM 75.0 °F - 63.0 °F 66% 29.87 in 10.0 mi ESE 11.5 mph - N/A   Clear
11:53 PM 73.9 °F - 64.9 °F 73% 29.87 in 10.0 mi SE 10.4 mph - N/A   Clear